Aeroporto :
LOGIN :

Iscrizione | Disclaimer

   EN    FR    IT 

 










Sommario :    VFR   VFR Marginale   IFR   IFR Intensivo   IFR Molto Intensivo
Visibilità : 
Base nubi : 
>= 8 km
>= 3000ft
5 / 8 km
1000 / 3000 ft
1500m / 5 km
500 / 1000 ft
800 / 1500m
200 / 500 ft
< 800m
< 200 ft
Simboli :   Temporali  Nebbia  Neve Forte  Precipitazioni Forti  Vento > 20 kt
SIGMETs :   Varie  Temporali  Ghiacco  Turbolenza  Onda orograficha  Ceneri Vulcaniche







- Altitudine del aeroporto : 288 ft
- Codice IATA : BZZ


EGVN - RAF Brize Norton

ULTIMO METAR :
  • 230950Z 10006KT CAVOK 16/09 Q0997 NOSIG

METARs OBSOLETI :
  • 230850Z 06006KT CAVOK 14/08 Q0997 BLU NOSIG
  • 230750Z 08006KT 8000 HZ FEW110 BKN150 13/08 Q0998 BLU BECMG 9999 NSW BLU

TAF TAF EGVN
Valido dal 23 a 09 ore il 24 a 09 ore UTC


230720Z 2309/2409 08006KT CAVOK
PROB30 2403/2408 6000 HZ
Nessun NOTAM noto per questo aeroporto.



MetMap, La meteo Aeronautica in un colpo d'occhio ! - Copyright ORBIFLY Dicembre 2007 - Disclaimer

ORBIFLY MET'MAP TEAM :

Programmazione e sviluppo : Alexandra Zaïnal
Concezione e sviluppo : Baudouin d'Aumeries
Co-Programmazione e sviluppo : Marc-Olivier Méhu
Supporto tecnico e logistico : Manuel Goepfert
Aiuto per la traduzione : Arnaldo La Scala

Contatto : metmap@orbifly.com




FONTI E CREDITI :

   NOAA